Regional Weather Roundup
Issued by NWS Goodland, KS

Home | Current Version | Previous Version | Text Only | Print | Product List | Glossary Off
Versions: 1 2 3 4 5 6 7 8 9 10 11 12 13 14 15 16 17 18 19 20 21 22 23 24 25 26 27 28 29 30 31 32 33 34 35 36 37 38 39 40 41 42 43 44 45 46 47 48 49 50

000
ASUS43 KGLD 230508
RWRGLD

GOODLAND FORECAST AREA HOURLY WEATHER ROUNDUP
NATIONAL WEATHER SERVICE GOODLAND KS
1100 PM MDT TUE JUL 22 2014

...OFFICIAL OBSERVATIONS...

CITY           SKY/WX    TMP DP  RH WIND       PRES   REMARKS
GOODLAND KS    CLEAR     74  68  81 E9        30.25R
HILL CITY KS   CLEAR     80  69  69 E15       30.18R
IMPERIAL NEB   CLEAR     74  62  66 E8        30.27R
MCCOOK NEB     PTCLDY    76  67  73 E14       30.22R
AKRON CO       CLEAR     74  62  66 E14       30.30R
BURLINGTON CO  CLEAR     74  62  66 SE7       30.26R
LIMON CO       CLEAR     72  57  59 SE8       30.34R
$$

...UNOFFICIAL OBSERVATIONS...

CITY           SKY/WX    TMP DP  RH WIND       PRES   REMARKS
COLBY KS       CLEAR     77  72  83 NE12      30.23R HAZE
GOVE KS          N/A     80  32  17 MISG        N/A
LENORA KS        N/A     78  32  18 MISG        N/A
NORTON KS      CLEAR     75  63  64 NE12      30.20R
OBERLIN KS     FAIR      75  64  69 E10       30.21R
SHARON SPRINGS   N/A     75  66  74 S7          N/A
ST FRANCIS KS  CLEAR     75  63  64 E8        30.24R
TRIBUNE KS     PTCLDY    75 N/A N/A SE9       30.24
KIT CARSON CO    N/A     79  58  48 N10         N/A
WRAY CO          N/A     77  61  57 E12       30.27
YUMA CO          N/A     73  63  72 E8          N/A
$$



USA.gov is the U.S. government's official web portal to all federal, state and local government web resources and services.